Probability
0 0 0 0 0 0 0 0 0 0 0 0 0 0 0 0 0 0 0 0 0 0 0 0 0 0 0 0 0 0 0 0 0 0 0 0 0 0 0 0 0 0 0 0
0 0 0 0 0 0 0 0 0 0 0 0 0 0 0 0 0 0 0 0 0 0 0 0 0 0 0 0 0 0 0 0 0 0 0 0 0 0 0 0 0 0 0 0
0 0 0 0 0 0 0 0 0 0 0 0 0 0 0 0 0 0 0 0 0 0 0 0 0 0 0 0 0 0 0 0 0 0 0 0 0 0 0 0 0 0 0 0
0 0 0 0 0 0 0 0 0 0 0 0 0 0 0 0 0 0 0 0 0 0 0 0 0 0 0 0 0 0 0 0 0 0 0 0 0 0 0 0 0 0 0 0
0 0 0 0 0 0 0 0 0 0 0 0 0 0 0 0 0 0 0 0 0 0 0 0 0 0 0 0 0 0 0 0 0 0 0 0 0 0 0 0 0 0 0 0
0 0 0 0 0 0 0 0 0 0 0 0 0 0 0 0 0 0 0 0 0 0 0 0 0 0 0 0 0 0 0 0 0 0 0 0 0 0 0 0 0 0 0 0
0 0 0 0 0 0 0 0 0 0 0 0 0 0 0 0 0 0 0 0 0 0 0 0 0 0 0 0 0 0 0 0 0 0 0 0 0 0 0 0 0 0 0 0
0 0 0 0 0 0 0 0 0 0 0 0 0 0 0 0 0 0 0 0 0 0 0 0 0 0 0 0 0 0 0 0 0 0 0 0 0 0 0 0 0 0 0 0
0 0 0 0 0 0 0 0 0 0 0 0 0 0 0 0 0 0 0 0 0 0 0 0 0 0 0 0 0 0 0 0 0 0 0 0 0 0 0 0 0 0 0 0
0 0 0 0 0 0 0 0 0 0 0 0 0 0 0 0 0 0 0 0 0 0 0 0 0 0 0 0 0 0 0 0 0 0 0 0 0 0 0 0 0 0 0 0
0 0 0 0 0 0 0 0 0 0 0 0 0 0 0 0 0 0 0 0 0 0 0 0 0 0 0 0 0 0 0 0 0 0 0 0 0 0 0 0 0 0 0 0
0 0 0 0 0 0 0 0 0 0 0 0 0 0 0 0 0 0 0 0 0 0 0 0 0 0 0 0 0 0 0 0 0 0 0 0 0 0 0 0 0 0 0 0
0 0 0 0 0 0 0 0 0 0 0 0 0 0 0 0 0 0 0 0 0 0 0 0 0 0 0 0 0 0 0 0 0 0 0 0 0 0 0 0 0 0 0 0
0 0 0 0 0 0 0 0 0 0 0 0 0 0 0 0 0 0 0 0 0 0 0 0 0 0 0 0 0 0 0 0 0 0 0 0 0 0 0 0 0 0 0 0
0 0 0 0 0 0 0 0 0 0 0 0 0 0 0 0 0 0 0 0 0 0 0 0 0 0 0 0 0 0 0 0 0 0 0 0 0 0 0 0 0 0 0 0
0 0 0 0 0 0 0 0 0 0 0 0 0 0 0 0 0 0 0 0 0 0 0 0 0 0 0 0 0 0 0 0 0 0 0 0 0 0 0 0 0 0 0 0
0 0 0 0 0 0 0 0 0 0 0 0 0 0 0 0 0 0 0 0 0 0 0 0 0 0 0 0 0 0 0 0 0 0 0 0 0 0 0 0 0 0 0 0
0 0 0 0 0 0 0 0 0 0 0 0 0 0 0 0 0 0 0 0 0 0 0 0 0 0 0 0 0 0 0 0 0 0 0 0 0 0 0 0 0 0 0 0
0 0 0 0 0 0 0 0 0 0 0 0 0 0 0 0 0 0 0 0 0 0 0 0 0 0 0 0 0 0 0 0 0 0 0 0 0 0 0 0 0 0 0 0
0 0 0 0 0 0 0 0 0 0 0 0 0 0 0 0 0 0 0 0 0 0 0 0 0 0 0 0 0 0 0 0 0 0 0 0 0 0 0 0 0 0 0 0
0 0 0 0 0 0 0 0 0 0 0 0 0 0 0 0 0 0 0 0 0 0 0 0 0 0 0 0 0 0 0 0 0 0 0 0 0 0 0 0 0 0 0 0
0 0 0 0 0 0 0 0 0 0 0 0 0 0 0 0 0 0 0 0 0 0 0 0 0 0 0 0 0 0 0 0 0 0 0 0 0 0 0 0 0 0 0 0
0 0 0 0 0 0 0 0 0 0 0 0 0 0 0 0 0 0 0 0 0 0 0 0 0 0 0 0 0 0 0 0 0 0 0 0 0 0 0 0 0 0 0 0
0 0 0 0 0 0 0 0 0 0 0 0 0 0 0 0 0 0 0 0 0 0 0 0 0 0 0 0 0 0 0 0 0 0 0 0 0 0 0 0 0 0 0 0
0 0 0 0 0 0 0 0 0 0 0 0 0 0 0 0 0 0 0 0 0 0 0 0 0 0 0 0 0 0 0 0 0 0 0 0 0 0 0 0 0 0 0 0
0 0 0 0 0 0 0 0 0 0 0 0 0 0 0 0 0 0 0 0 0 0 0 0 0 0 0 0 0 0 0 0 0 0 0 0 0 0 0 0 0 0 0 0
Wind_Speed
5 8 13 17 18 7 5 7 8 5 1 4 9 10 7 5 5 6 6 5 4 4 4 5 6 7 7 8 9 9 9 7 6 6 7 8 9 9 10 10 13 13 12 12
6 15 15 5 9 8 7 9 10 5 1 4 7 12 7 6 6 5 6 7 6 6 5 5 6 7 8 8 9 9 9 9 8 8 7 8 9 9 9 9 12 14 13 13
16 5 7 9 8 12 13 15 15 8 2 3 6 12 11 6 5 5 6 6 7 7 7 5 6 6 7 8 8 8 9 10 11 11 10 9 8 8 8 10 10 12 13 13
15 5 7 9 12 14 13 11 11 9 7 8 6 10 7 7 8 9 9 9 9 8 7 6 6 6 7 7 7 8 10 10 10 9 9 11 10 9 9 8 9 11 13 13
10 9 10 12 11 14 6 4 6 7 10 9 7 10 7 6 10 13 14 13 12 10 8 7 6 5 6 6 7 8 10 11 11 11 12 13 12 11 9 9 10 10 10 11
4 4 7 7 3 7 10 8 5 3 5 11 13 14 10 9 10 11 16 16 14 11 9 7 6 6 6 7 7 8 10 11 10 11 12 14 15 12 11 10 9 8 7 8
9 8 6 5 8 7 10 9 6 6 8 10 7 11 11 4 5 9 18 19 17 13 11 10 9 8 8 8 8 8 11 11 10 11 12 12 13 12 11 9 8 7 6 6
12 11 15 12 13 14 16 16 11 11 9 6 6 12 7 3 3 4 12 17 17 14 12 11 10 9 9 9 9 9 10 11 10 11 11 10 10 8 7 8 7 7 5 5
14 10 4 8 4 13 13 13 6 3 2 3 9 7 6 4 5 7 13 18 19 17 15 13 12 11 10 10 10 10 11 11 10 10 10 10 9 9 8 8 7 5 5 4
11 8 5 5 4 2 5 10 7 8 8 9 7 8 8 13 15 13 16 20 21 19 16 15 13 12 11 10 10 10 10 11 11 10 9 7 8 8 8 7 6 6 5 4
11 9 6 7 15 17 11 10 9 9 6 7 7 8 6 10 15 19 20 21 22 21 19 17 14 13 12 11 11 11 10 11 10 10 9 9 8 7 7 6 6 5 4 3
11 7 7 10 3 5 12 14 14 11 9 7 6 6 3 5 9 15 17 18 20 20 19 17 16 15 14 14 13 12 12 11 11 10 9 9 8 7 7 6 5 4 4 3
14 9 6 4 6 7 11 13 15 8 6 9 10 6 4 4 6 11 13 17 18 19 19 17 16 16 16 15 15 14 13 12 11 10 10 9 9 8 7 6 5 4 3 3
10 10 14 18 10 14 14 16 17 14 12 13 15 9 7 9 10 12 14 16 18 19 19 19 17 17 16 16 15 15 14 13 12 11 10 10 9 8 7 6 6 5 4 3
10 12 15 15 5 10 15 21 25 25 24 18 16 18 15 17 16 15 14 15 17 18 20 20 19 17 16 16 16 15 15 14 12 12 11 10 9 7 7 7 6 5 4 3
10 9 8 11 10 9 10 20 26 28 26 25 20 18 9 13 11 11 13 15 17 19 20 19 18 16 17 17 17 16 16 14 13 13 12 9 8 8 8 7 6 5 4 3
11 10 11 11 7 4 18 23 21 21 20 20 25 18 8 10 14 16 16 17 18 17 16 16 16 16 16 16 17 17 16 13 12 12 10 9 9 9 8 7 6 6 5 4
13 10 7 5 9 19 13 3 18 21 18 17 11 5 12 12 11 9 11 15 14 12 12 12 12 13 13 13 14 13 11 11 12 11 10 9 9 9 8 7 7 6 4 4
7 11 7 7 10 11 5 5 10 15 16 14 13 6 6 6 5 4 7 9 10 10 10 9 10 10 10 12 12 10 10 11 11 11 11 11 10 10 9 8 7 6 5 5
1 5 7 8 9 13 7 7 5 7 8 8 13 11 10 11 8 8 9 10 8 7 7 7 7 8 9 9 9 11 11 11 12 13 11 10 10 10 10 9 7 5 5 5
8 8 12 12 12 9 2 6 9 11 8 5 10 11 14 13 6 4 9 9 8 8 7 7 7 8 8 8 10 11 11 13 12 8 8 9 9 9 8 7 6 5 5 4
15 12 12 10 12 11 9 11 12 4 3 5 8 10 12 9 5 6 8 8 8 7 7 7 7 7 6 8 10 11 12 10 7 8 9 9 8 7 7 7 6 5 5 5
9 8 7 9 5 3 10 7 2 3 5 6 8 8 11 9 9 9 8 8 8 8 7 7 8 7 6 8 10 12 10 8 9 9 9 8 8 7 7 7 7 5 5 5
5 0 3 3 1 1 5 2 3 3 4 5 5 7 9 8 8 8 7 7 7 7 7 6 7 8 8 9 10 10 6 9 9 10 9 8 8 8 7 6 6 6 6 6
6 8 5 3 1 3 5 8 8 6 3 3 3 5 8 8 7 8 7 8 8 7 7 7 9 11 11 9 10 8 8 10 10 9 9 8 8 7 7 7 6 7 6 6
7 9 9 6 9 8 8 10 11 10 9 8 7 6 6 8 9 8 8 8 8 8 7 8 9 10 9 8 8 8 9 10 10 9 9 7 7 6 6 6 5 11 11 13
Wind_Direction
164 196 213 212 212 234 215 211 231 233 165 232 240 244 213 180 196 193 182 168 149 112 68 48 43 44 53 57 61 67 75 81 92 92 87 81 72 65 61 55 50 50 50 52
167 226 229 209 203 206 208 225 241 246 205 249 261 259 237 205 213 206 189 173 158 141 118 76 60 58 59 61 65 69 72 78 81 88 89 87 92 77 70 64 56 53 53 52
209 215 189 166 176 205 222 231 239 237 161 227 276 262 225 196 193 190 190 176 165 153 136 111 84 72 69 63 62 71 76 80 86 96 102 107 100 91 75 66 61 53 55 57
231 188 152 184 201 202 227 224 234 225 230 244 225 269 225 192 200 202 193 186 174 162 151 133 115 93 79 73 75 80 83 83 87 96 103 104 99 93 84 79 74 66 59 58
216 184 187 206 208 199 219 145 191 215 233 249 216 252 251 177 219 208 195 188 178 170 161 147 129 109 95 90 90 91 90 87 90 96 101 100 99 100 101 95 85 76 66 59
234 186 214 218 145 170 132 109 96 130 210 245 219 227 251 208 212 188 184 185 180 173 166 155 140 132 117 108 104 105 101 95 96 99 100 105 109 112 109 100 93 82 73 63
223 217 203 156 131 148 172 163 183 204 215 237 178 220 243 209 178 182 180 180 178 174 172 168 163 155 142 131 122 119 114 108 108 107 106 108 111 111 108 104 96 91 79 68
206 222 197 188 187 177 194 197 197 209 219 207 179 228 242 119 134 178 179 174 174 178 180 178 174 167 157 149 142 136 128 124 123 118 114 113 113 110 106 103 102 95 87 77
203 220 151 188 192 170 180 213 209 143 88 240 220 237 256 170 187 176 175 177 183 185 185 184 180 178 171 165 160 153 145 139 136 132 128 125 123 120 119 116 110 103 98 92
194 206 169 151 136 230 210 170 160 196 200 229 232 222 215 196 200 185 186 189 188 187 187 187 186 184 181 175 168 164 159 153 150 147 142 138 136 133 133 131 123 116 109 98
195 193 164 178 200 191 171 184 202 198 212 210 234 228 208 199 188 188 194 193 189 188 189 189 189 187 183 180 178 175 173 167 165 161 156 153 151 149 146 140 134 127 118 103
190 188 197 211 203 248 212 201 190 191 208 215 239 243 133 196 191 191 191 190 190 191 191 191 189 186 187 187 186 185 183 182 178 172 169 166 162 162 160 152 145 141 135 121
160 167 176 206 209 196 218 216 215 220 190 203 221 234 134 190 192 195 191 188 190 192 192 193 192 193 193 192 190 191 191 190 184 181 179 177 177 176 172 164 159 157 154 147
162 186 206 215 204 182 199 206 205 203 218 224 228 223 195 199 199 196 195 191 190 193 195 196 198 199 197 195 194 194 195 194 189 189 190 190 188 184 178 170 167 168 171 175
175 214 226 240 226 188 200 203 203 211 220 227 229 221 209 200 202 197 191 187 189 195 199 202 202 201 198 197 198 198 198 195 193 194 198 199 190 181 175 174 175 176 180 185
188 213 211 231 225 215 226 220 211 216 223 232 242 238 205 204 198 191 188 186 193 199 203 204 204 202 201 199 199 198 200 196 194 199 202 195 184 179 181 180 179 184 190 198
185 194 199 224 180 183 237 224 212 215 219 221 231 236 157 188 199 202 195 193 199 201 200 201 203 203 202 201 199 200 198 191 192 198 197 190 185 185 185 181 186 195 201 210
184 188 202 165 159 220 233 221 206 213 218 215 222 186 177 199 202 204 197 196 199 199 199 200 201 202 202 200 199 198 190 185 189 195 196 192 188 189 183 186 197 199 203 218
187 184 188 178 215 239 257 201 186 199 224 214 214 187 148 114 115 214 208 201 198 195 195 195 196 194 189 192 189 180 182 185 191 198 200 195 190 186 185 194 199 199 206 222
193 185 187 189 210 226 225 155 166 145 233 205 200 187 155 149 194 217 187 192 196 189 186 185 178 176 184 185 172 176 185 189 201 205 201 190 184 185 189 193 191 195 207 227
176 199 213 213 228 242 126 148 152 177 224 179 186 177 169 188 208 141 154 173 182 184 185 177 173 182 189 172 168 185 191 204 208 190 176 176 180 184 183 179 184 189 209 229
183 190 206 210 223 230 145 159 181 179 110 150 165 170 179 187 150 145 158 168 175 180 181 178 181 196 186 171 178 194 207 207 175 166 172 174 173 174 170 174 183 195 209 228
209 200 194 203 219 74 165 175 150 151 160 174 172 176 176 172 172 173 179 183 187 190 189 185 191 200 192 184 189 204 210 174 160 166 172 170 168 174 174 182 190 199 207 227
226 203 165 199 228 138 177 111 185 201 195 181 170 164 170 176 180 184 189 191 195 200 201 192 192 207 211 199 203 213 182 157 162 173 176 172 176 183 185 197 201 206 210 220
183 163 163 179 115 126 227 224 212 202 185 157 153 165 182 185 190 193 198 203 206 210 205 194 201 214 220 204 204 198 167 159 171 177 177 181 187 191 193 203 211 215 222 224
178 169 168 190 184 178 206 215 201 201 205 197 188 195 200 198 206 205 211 212 211 213 206 203 210 218 220 200 197 183 171 170 172 179 184 186 188 189 198 207 224 235 240 245